CW4043 Weather Reports


time (UTC)temp
C
wind
direction
speed
KPH
gust
KPH
rain 1hr
cm
rain 24hr
cm
rain mn
cm
humidity
%
barometer
mb
20260507042026 8 59 6.4 14.5 0.00 0.00 0.00 88 1013.4
20260507041751 8 36 8.0 17.7 0.00 0.00 0.00 88 1013.4
20260507041023 8 28 8.0 17.7 0.00 0.00 0.00 88 1013.3
20260507040517 8 35 8.0 16.1 0.00 0.00 0.00 88 1013.3
20260507040021 8 57 6.4 16.1 0.00 0.00 0.00 88 1013.3
20260507035516 8 36 8.0 16.1 0.00 0.00 0.00 88 1013.2
20260507035020 8 22 6.4 14.5 0.00 0.00 0.00 88 1013.1
20260507034517 8 35 6.4 12.9 0.00 0.00 0.00 87 1013.1
20260507034019 8 35 6.4 14.5 0.00 0.00 0.00 87 1013.0
20260507033735 8 26 8.0 14.5 0.00 0.00 0.00 87 1013.0
20260507033021 8 35 9.7 17.7 0.00 0.00 0.00 87 1013.0
20260507032723 8 36 8.0 16.1 0.00 0.00 0.00 87 1012.9
20260507032619 8 34 8.0 17.7 0.00 0.00 0.00 87 1012.9
20260507031516 8 355 8.0 17.7 0.00 0.00 0.00 87 1012.9
20260507031246 8 29 9.7 17.7 0.00 0.00 0.00 86 1012.9
20260507030516 8 25 8.0 17.7 0.00 0.00 0.00 86 1012.9
20260507030020 8 42 8.0 14.5 0.00 0.00 0.00 86 1012.8
20260507025516 8 49 8.0 17.7 0.00 0.00 0.00 86 1012.8
20260507025020 8 62 8.0 19.3 0.00 0.00 0.00 86 1012.9
20260507024516 8 10 9.7 20.9 0.00 0.00 0.00 86 1012.9
20260507024021 8 5 9.7 22.5 0.00 0.00 0.00 86 1012.8
20260507023516 8 26 8.0 22.5 0.00 0.00 0.00 86 1012.8
20260507023021 8 39 8.0 17.7 0.00 0.00 0.00 85 1012.7
20260507022515 8 21 8.0 17.7 0.00 0.00 0.00 85 1012.7
20260507022020 8 38 8.0 17.7 0.00 0.00 0.00 85 1012.7
20260507021515 8 34 8.0 20.9 0.00 0.00 0.00 85 1012.5
20260507021019 8 27 8.0 20.9 0.00 0.00 0.00 85 1012.6
20260507020517 8 40 8.0 20.9 0.00 0.00 0.00 84 1012.5
20260507020020 8 41 8.0 20.9 0.00 0.00 0.00 84 1012.4
20260507015516 8 43 9.7 20.9 0.00 0.00 0.00 84 1012.4
20260507015019 8 25 9.7 22.5 0.00 0.00 0.00 84 1012.4
20260507014529 8 74 11.3 22.5 0.00 0.00 0.00 83 1012.4
20260507014019 8 25 11.3 19.3 0.00 0.00 0.00 83 1012.4
20260507013516 8 13 11.3 20.9 0.00 0.00 0.00 83 1012.4
20260507013020 8 27 9.7 20.9 0.00 0.00 0.00 82 1012.4
20260507012516 8 23 11.3 20.9 0.00 0.00 0.00 82 1012.4
20260507012019 8 11 11.3 20.9 0.00 0.00 0.00 82 1012.3
20260507011530 8 51 9.7 20.9 0.00 0.00 0.00 82 1012.3
20260507011019 8 34 9.7 20.9 0.00 0.00 0.00 82 1012.2
20260507010516 8 25 11.3 20.9 0.00 0.00 0.00 81 1012.2
20260507010019 8 47 12.9 25.7 0.00 0.00 0.00 81 1012.2
20260507005742 8 37 12.9 25.7 0.00 0.00 0.00 81 1012.1
20260507005019 8 38 11.3 20.9 0.00 0.00 0.00 81 1012.2
20260507004516 8 34 11.3 20.9 0.00 0.00 0.00 81 1012.2
20260507004020 8 15 11.3 20.9 0.00 0.00 0.00 81 1012.2
20260507003515 8 36 11.3 20.9 0.00 0.00 0.00 82 1012.2
20260507003020 8 24 11.3 20.9 0.00 0.00 0.00 82 1012.2
20260507002516 8 34 11.3 20.9 0.00 0.00 0.00 82 1012.1
20260507002020 8 42 9.7 20.9 0.00 0.00 0.00 82 1012.2
20260507001515 8 18 11.3 24.1 0.00 0.00 0.00 82 1012.2
20260507001021 8 24 11.3 24.1 0.00 0.00 0.00 81 1012.1
20260507000529 8 30 9.7 24.1 0.00 0.00 0.00 81 1012.0
20260507000022 8 49 9.7 24.1 0.00 0.00 0.00 81 1012.1
20260506235516 8 32 9.7 20.9 0.00 0.00 0.00 81 1012.1
20260506235020 8 36 11.3 20.9 0.00 0.00 0.00 81 1012.1
20260506234516 8 42 12.9 24.1 0.00 0.00 0.00 81 1012.2
20260506234020 8 40 11.3 24.1 0.00 0.00 0.00 81 1012.2
20260506233530 8 17 11.3 24.1 0.00 0.00 0.00 81 1012.2
20260506233007 8 44 12.9 24.1 0.00 0.00 0.00 81 1012.2
20260506232520 8 31 11.3 24.1 0.00 0.00 0.00 82 1012.2
20260506232008 8 36 12.9 27.4 0.00 0.00 0.00 82 1012.2
20260506231508 8 9 14.5 27.4 0.00 0.00 0.00 82 1012.2
20260506231009 8 61 12.9 25.7 0.00 0.00 0.00 82 1012.1
20260506230731 8 51 11.3 24.1 0.00 0.00 0.00 82 1012.2
20260506230007 8 28 11.3 24.1 0.00 0.00 0.00 82 1012.2
20260506225507 8 26 11.3 24.1 0.00 0.00 0.00 82 1012.2
20260506225007 8 61 11.3 24.1 0.00 0.00 0.00 82 1012.2
20260506224507 8 38 9.7 24.1 0.00 0.00 0.00 82 1012.2
20260506224457 8 46 8.0 19.3 0.00 0.00 0.00 82 1012.2
20260506223520 8 49 11.3 24.1 0.00 0.00 0.00 82 1012.2
20260506223008 8 46 11.3 24.1 0.00 0.00 0.00 81 1012.2
20260506222507 8 51 11.3 22.5 0.00 0.00 0.00 81 1012.2
20260506222007 8 63 11.3 22.5 0.00 0.00 0.00 81 1012.2
20260506221706 8 58 11.3 25.7 0.00 0.00 0.00 81 1012.3
20260506221540 8 38 11.3 22.5 0.00 0.00 0.00 81 1012.3
20260506220450 8 32 12.9 25.7 0.00 0.00 0.00 81 1012.2
20260506215950 8 44 12.9 24.1 0.00 0.00 0.00 81 1012.2
20260506215715 8 33 12.9 25.7 0.00 0.00 0.00 81 1012.2
20260506215213 8 36 11.3 29.0 0.00 0.00 0.00 82 1012.0
20260506214449 8 44 11.3 29.0 0.00 0.00 0.00 82 1012.0
20260506213949 8 36 9.7 25.7 0.00 0.00 0.00 82 1012.0
20260506213449 8 24 9.7 19.3 0.00 0.00 0.00 82 1011.9
20260506213215 8 44 9.7 20.9 0.00 0.00 0.00 82 1012.0
20260506212450 8 30 11.3 20.9 0.00 0.00 0.00 82 1012.0
20260506211948 8 25 11.3 22.5 0.00 0.00 0.00 82 1012.0
20260506211447 8 5 11.3 22.5 0.00 0.00 0.00 82 1011.9
20260506210948 8 22 11.3 22.5 0.00 0.00 0.00 83 1011.9
20260506210711 8 38 11.3 20.9 0.00 0.00 0.00 82 1011.9
20260506205945 8 40 11.3 20.9 0.00 0.00 0.00 82 1011.9
20260506205445 8 54 11.3 20.9 0.00 0.00 0.00 82 1011.9
20260506204945 8 55 9.7 20.9 0.00 0.00 0.00 83 1011.9
20260506204442 8 42 11.3 25.7 0.00 0.00 0.00 83 1011.9
20260506203938 8 22 11.3 25.7 0.00 0.00 0.00 83 1011.9
20260506203436 8 55 12.9 24.1 0.00 0.00 0.00 83 1011.8
20260506202932 8 20 12.9 24.1 0.00 0.00 0.00 83 1011.8
20260506202657 8 41 12.9 22.5 0.00 0.00 0.00 83 1011.9
20260506201931 8 36 11.3 24.1 0.00 0.00 0.00 83 1011.8
20260506201430 8 25 12.9 30.6 0.00 0.00 0.00 83 1011.9
20260506200927 8 45 14.5 30.6 0.00 0.00 0.00 83 1011.8
20260506200427 8 55 16.1 29.0 0.00 0.00 0.00 82 1011.7
20260506195925 8 54 16.1 29.0 0.00 0.00 0.00 82 1011.7
20260506195645 9 50 14.5 29.0 0.00 0.00 0.00 82 1011.7
20260506194925 9 26 14.5 30.6 0.00 0.00 0.00 81 1011.6
20260506194425 9 45 17.7 30.6 0.00 0.00 0.00 81 1011.6
20260506193925 9 43 14.5 27.4 0.00 0.00 0.00 81 1011.6
20260506193650 9 34 9.7 24.1 0.00 0.00 0.00 81 1011.6
20260506192925 9 40 9.7 22.5 0.00 0.00 0.00 81 1011.5
20260506192425 9 32 11.3 22.5 0.00 0.00 0.00 80 1011.6
20260506192138 9 36 14.5 27.4 0.00 0.00 0.00 80 1011.4
20260506191421 9 47 12.9 27.4 0.00 0.00 0.00 80 1011.3
20260506190918 9 36 9.7 25.7 0.00 0.00 0.00 80 1011.2
20260506190416 9 42 12.9 29.0 0.00 0.00 0.00 80 1011.2
20260506185904 9 15 14.5 29.0 0.00 0.00 0.00 80 1011.0
20260506185403 10 37 14.5 25.7 0.00 0.00 0.00 80 1011.0
20260506185130 10 9 12.9 25.7 0.00 0.00 0.00 80 1010.9
20260506184359 10 53 12.9 25.7 0.00 0.00 0.00 80 1010.9
20260506183853 10 35 12.9 25.7 0.00 0.00 0.00 79 1010.8
20260506183355 10 19 16.1 25.7 0.00 0.00 0.00 79 1010.8
20260506182849 10 19 14.5 27.4 0.00 0.00 0.00 79 1010.7
20260506182352 10 53 12.9 27.4 0.00 0.00 0.00 79 1010.7
20260506181849 10 59 14.5 27.4 0.00 0.00 0.00 79 1010.7
20260506181352 10 28 12.9 29.0 0.00 0.00 0.00 79 1010.7
20260506180845 10 51 12.9 29.0 0.00 0.00 0.00 79 1010.6
20260506180616 10 34 16.1 30.6 0.00 0.00 0.00 77 1010.5
20260506175803 10 66 14.5 30.6 0.00 0.00 0.00 78 1010.5
20260506175524 10 42 12.9 25.7 0.00 0.00 0.00 78 1010.5
20260506174802 10 34 14.5 27.4 0.00 0.00 0.00 77 1010.5
20260506174526 10 49 14.5 27.4 0.00 0.00 0.00 77 1010.5
20260506173804 10 33 16.1 29.0 0.00 0.00 0.00 77 1010.4
20260506173524 11 30 16.1 29.0 0.00 0.00 0.00 76 1010.5
20260506172801 11 65 14.5 27.4 0.00 0.00 0.00 76 1010.4
20260506172523 11 49 14.5 32.2 0.00 0.00 0.00 76 1010.4
20260506172022 11 31 14.5 32.2 0.00 0.00 0.00 75 1010.4
20260506171256 11 17 14.5 29.0 0.00 0.00 0.00 76 1010.3
20260506170756 11 30 12.9 25.7 0.00 0.00 0.00 75 1010.3
20260506170254 11 38 12.9 25.7 0.00 0.00 0.00 76 1010.3
20260506165754 11 24 14.5 33.8 0.00 0.00 0.00 75 1010.3
20260506165254 11 95 14.5 33.8 0.00 0.00 0.00 76 1010.3
20260506164748 11 19 17.7 30.6 0.00 0.00 0.00 74 1010.3
20260506164248 11 18 16.1 33.8 0.00 0.00 0.00 74 1010.2
20260506163744 11 40 16.1 33.8 0.00 0.00 0.00 73 1010.3
20260506163244 11 22 16.1 30.6 0.00 0.00 0.00 74 1010.3
20260506162742 11 40 17.7 35.4 0.00 0.00 0.00 73 1010.1
20260506162515 12 40 17.7 35.4 0.00 0.00 0.00 72 1010.1
20260506161958 12 19 19.3 37.0 0.00 0.00 0.00 71 1010.2
20260506161237 12 60 20.9 37.0 0.00 0.00 0.00 70 1010.2
20260506160738 12 16 19.3 33.8 0.00 0.00 0.00 70 1010.2
20260506160238 12 86 17.7 33.8 0.00 0.00 0.00 71 1010.2
20260506155738 12 47 19.3 37.0 0.00 0.00 0.00 71 1010.2
20260506155512 13 16 19.3 37.0 0.00 0.00 0.00 70 1010.2
20260506154737 13 48 16.1 29.0 0.00 0.00 0.00 71 1010.2
20260506154237 13 22 14.5 27.4 0.00 0.00 0.00 71 1010.2
20260506153737 12 55 17.7 30.6 0.00 0.00 0.00 73 1010.2
20260506153236 12 31 20.9 30.6 0.00 0.00 0.00 74 1010.1
20260506152734 12 35 20.9 33.8 0.00 0.00 0.00 75 1010.2
20260506152234 12 44 19.3 33.8 0.00 0.00 0.00 76 1010.1
20260506151957 12 47 19.3 32.2 0.00 0.00 0.00 77 1010.1
20260506151234 12 46 17.7 32.2 0.00 0.00 0.00 76 1010.0
20260506150733 12 28 17.7 30.6 0.00 0.00 0.00 77 1010.0
20260506150230 12 39 17.7 30.6 0.00 0.00 0.00 78 1009.9
20260506145730 12 32 19.3 33.8 0.00 0.00 0.00 77 1009.9
20260506145229 12 32 19.3 33.8 0.00 0.00 0.00 78 1009.9
20260506144728 12 63 19.3 30.6 0.00 0.00 0.00 79 1009.7
20260506144229 12 36 17.7 30.6 0.00 0.00 0.00 79 1009.8
20260506143727 12 30 17.7 33.8 0.00 0.00 0.00 80 1009.8
20260506143225 11 24 17.7 33.8 0.00 0.00 0.00 80 1009.8
20260506142949 11 33 17.7 27.4 0.00 0.00 0.00 80 1009.8
20260506142226 11 46 17.7 30.6 0.00 0.00 0.00 80 1009.8
20260506141726 11 38 17.7 30.6 0.00 0.00 0.00 80 1009.9
20260506141225 12 34 16.1 29.0 0.00 0.00 0.00 80 1009.9
20260506140722 12 34 17.7 30.6 0.00 0.00 0.00 80 1009.9
20260506140223 12 51 17.7 30.6 0.00 0.00 0.00 80 1009.9
20260506135720 12 39 19.3 30.6 0.00 0.00 0.00 81 1009.9
20260506135221 12 53 19.3 30.6 0.00 0.00 0.00 80 1010.0
20260506134721 12 37 19.3 33.8 0.00 0.00 0.00 80 1010.0
20260506134440 12 16 19.3 35.4 0.00 0.00 0.00 81 1009.8
20260506133718 12 38 16.1 35.4 0.00 0.00 0.00 80 1009.8
20260506133218 12 53 14.5 30.6 0.00 0.00 0.00 80 1009.9
20260506132718 12 51 14.5 27.4 0.00 0.00 0.00 80 1009.9
20260506132217 12 32 14.5 37.0 0.00 0.00 0.00 80 1009.8
20260506131716 12 27 17.7 37.0 0.00 0.00 0.00 80 1009.7
20260506131214 12 28 19.3 35.4 0.00 0.00 0.00 80 1009.7
20260506130714 12 46 19.3 32.2 0.00 0.00 0.00 79 1009.8
20260506130215 12 35 17.7 32.2 0.00 0.00 0.00 78 1009.8
20260506125713 12 56 16.1 30.6 0.00 0.00 0.00 79 1009.6
20260506125431 12 26 14.5 30.6 0.00 0.00 0.00 78 1009.6
20260506124712 12 71 16.1 29.0 0.00 0.00 0.00 78 1009.7
20260506124210 12 28 16.1 29.0 0.00 0.00 0.00 77 1009.6
20260506123709 12 24 16.1 32.2 0.00 0.00 0.00 77 1009.6
20260506123203 12 17 17.7 33.8 0.00 0.00 0.00 76 1009.5
20260506122923 13 32 17.7 33.8 0.00 0.00 0.00 74 1009.5
20260506122202 13 57 14.5 25.7 0.00 0.00 0.00 71 1009.4
20260506121702 13 65 12.9 29.0 0.00 0.00 0.00 67 1009.4
20260506121426 14 26 11.3 29.0 0.00 0.00 0.00 68 1009.3
20260506120933 13 36 12.9 29.0 0.00 0.00 0.00 68 1009.2
20260506120418 13 35 11.3 29.0 0.00 0.00 0.00 68 1009.3
20260506115659 13 34 11.3 25.7 0.00 0.00 0.00 68 1009.2
20260506115154 13 59 12.9 30.6 0.00 0.00 0.00 67 1009.1
20260506114655 13 33 14.5 30.6 0.00 0.00 0.00 67 1009.1
20260506114155 13 31 12.9 29.0 0.00 0.00 0.00 66 1009.1
20260506113654 13 119 12.9 25.7 0.00 0.00 0.00 68 1009.1
20260506113154 13 85 14.5 24.1 0.00 0.00 0.00 68 1009.1
20260506112654 13 53 14.5 29.0 0.00 0.00 0.00 69 1009.1
20260506112154 13 31 14.5 29.0 0.00 0.00 0.00 69 1009.1
20260506112133 13 46 12.9 27.4 0.00 0.00 0.00 70 1009.2
20260506111419 13 70 11.3 22.5 0.00 0.00 0.00 69 1009.1
20260506110648 13 55 9.7 22.5 0.00 0.00 0.00 71 1009.0
20260506110147 13 51 9.7 22.5 0.00 0.00 0.00 71 1009.0
20260506110137 13 40 11.3 24.1 0.00 0.00 0.00 70 1009.0
20260506105141 13 17 11.3 24.1 0.00 0.00 0.00 70 1009.0
20260506104638 13 49 11.3 22.5 0.00 0.00 0.00 69 1009.1
20260506104136 13 0 8.0 20.9 0.00 0.00 0.00 68 1009.2
20260506103636 13 90 8.0 19.3 0.00 0.00 0.00 69 1009.2
20260506103136 13 63 9.7 19.3 0.00 0.00 0.00 70 1009.2
20260506102636 13 345 9.7 24.1 0.00 0.00 0.00 68 1009.2
20260506102136 12 19 9.7 24.1 0.00 0.00 0.00 69 1009.2
20260506101635 12 40 8.0 17.7 0.00 0.00 0.00 70 1009.1
20260506101133 12 0 8.0 17.7 0.00 0.00 0.00 71 1009.2
20260506100632 12 22 8.0 17.7 0.00 0.00 0.00 71 1009.1
20260506100130 12 67 6.4 16.1 0.00 0.00 0.00 73 1009.1
20260506095630 12 18 8.0 17.7 0.00 0.00 0.00 73 1009.1
20260506095130 11 12 8.0 17.7 0.00 0.00 0.00 72 1009.1
20260506094628 11 81 9.7 25.7 0.00 0.00 0.00 72 1009.2
20260506094616 11 40 8.0 25.7 0.00 0.00 0.00 73 1009.2
20260506093628 11 26 8.0 20.9 0.00 0.00 0.00 73 1009.2
20260506093128 11 45 6.4 20.9 0.00 0.00 0.00 74 1009.2
20260506092627 11 47 8.0 17.7 0.00 0.00 0.00 74 1009.3
20260506092609 11 17 8.0 17.7 0.00 0.00 0.00 74 1009.2
20260506091844 11 38 9.7 22.5 0.00 0.00 0.00 74 1009.2
20260506091346 11 45 9.7 22.5 0.00 0.00 0.00 74 1009.1
20260506090624 11 55 9.7 19.3 0.00 0.00 0.00 75 1009.2
20260506090122 11 13 9.7 19.3 0.00 0.00 0.00 76 1009.1
20260506085617 11 20 9.7 20.9 0.00 0.00 0.00 77 1009.1
20260506085114 11 51 8.0 20.9 0.00 0.00 0.00 77 1009.1
20260506084614 11 31 9.7 22.5 0.00 0.00 0.00 78 1009.2
20260506084113 11 38 9.7 22.5 0.00 0.00 0.00 78 1009.1
20260506083610 11 78 8.0 19.3 0.00 0.00 0.00 79 1009.0
20260506083110 11 28 6.4 16.1 0.00 0.00 0.00 79 1009.0
20260506082609 11 13 8.0 17.7 0.00 0.00 0.00 80 1009.0
20260506082102 11 44 9.7 24.1 0.00 0.00 0.00 80 1009.0
20260506081602 11 52 9.7 24.1 0.00 0.00 0.00 79 1009.0
20260506081102 11 86 9.7 22.5 0.00 0.00 0.00 79 1008.9
20260506080820 11 39 9.7 22.5 0.00 0.00 0.00 79 1008.9
20260506073525 10 36 11.3 19.3 0.00 0.00 0.00 81 1008.5
20260506073514 10 5 11.3 24.1 0.00 0.00 0.00 81 1008.6
20260506072524 10 50 9.7 24.1 0.00 0.00 0.00 82 1008.7
20260506072234 10 46 8.0 20.9 0.00 0.00 0.00 83 1008.6
20260506071518 10 89 8.0 17.7 0.00 0.00 0.00 84 1008.6
20260506071242 10 98 8.0 17.7 0.00 0.00 0.00 85 1008.6
20260506070515 10 41 8.0 24.1 0.00 0.00 0.00 86 1008.6
20260506062456 10 81 9.7 22.5 0.00 0.00 0.00 88 1008.3
20260506061956 10 34 11.3 29.0 0.00 0.00 0.00 88 1008.3
20260506061456 10 36 11.3 29.0 0.00 0.00 0.00 88 1008.2
20260506060955 10 85 11.3 25.7 0.00 0.00 0.00 89 1008.4
20260506060709 10 48 9.7 20.9 0.00 0.00 0.00 89 1008.3
20260506060209 10 56 8.0 16.1 0.00 0.00 0.00 89 1008.4
20260506050930 9 41 8.0 20.9 0.00 0.00 0.00 89 1008.2
20260506050427 9 64 9.7 20.9 0.00 0.00 0.00 89 1008.2
20260506050149 9 74 9.7 22.5 0.00 0.00 0.00 89 1008.2
20260506044426 9 46 9.7 25.7 0.00 0.00 0.00 89 1008.2
20260506043925 9 37 8.0 22.5 0.00 0.00 0.00 89 1008.3
20260506043426 9 99 8.0 22.5 0.00 0.00 0.00 89 1008.3
20260506043148 9 104 6.4 16.1 0.00 0.00 0.00 89 1008.3